If you wish to contribute or participate in the discussions about articles you are invited to join SKYbrary as a registered user

 Actions

Francistown Airport

From SKYbrary Wiki

FBFT
Airport
ICAO: FBFT – IATA: FRW
Summary
Name Francistown Airport
Region Africa
Territory Botswana BW.gif
Location Francistown, North east district
Serving Francistown
Elevation 1,000.658 m
3,283 ft
3,283 ft1,000.658 m
Coordinates 21° 9' 33.98" S, 27° 28' 27.98" E
Runways
Designator Length Width Surface ROPS
11/29 2200 m7,217.848 ft
30 m98.425 ft
ASP /
16/34 1264 m4,146.982 ft
22 m72.178 ft
GVL /


METAR
Observation FBFT 281900Z 11007KT CAVOK 26/M00 Q1017
Station Francistown
Date/Time 28 October 2020 19:00:00
Wind direction 110°
Wind speed 07 kts
Lowest cloud amount clouds and visibility OK
Temperature 26°C
Dew point
Humidity 18%
QNH 1017 hPa
Weather condition n/a

Airport serving Francistown, Botswana.

Climatology

Hot, semi-arid/Steppe climate (Köppen climate classification BSh)

Maps

Terrain

Loading map...

Airport Layout

Loading map...


Accidents & Serious Incidents at or in vicinity of FBFT

None on SKYbrary